• En España
  • Lista de países
  • Para 7 días
  • Temperatura del agua
  • Mapa Satelital
  • El tiempo en el mapa
  • Informadores
  • user-avatar
    Iniciar sesión

    Tiempo cada hora Constantine

    Hoy, 21 Agosto, Lunes

    Tiempo Temperatura Precipitaciones Viento Presión Humedad
    00:00 +24°C° 0 mm 1 mps 713 mmHg 67%
    01:00 +23°C° 0 mm 1 mps 712 mmHg 68%
    02:00 +23°C° 0 mm 1 mps 712 mmHg 69%
    03:00 +22°C° 0 mm 1 mps 712 mmHg 71%
    04:00 +22°C° 0 mm 1 mps 712 mmHg 70%
    05:00 +22°C° 0 mm 1 mps 712 mmHg 69%
    06:00 +22°C° 0 mm 1 mps 712 mmHg 68%
    07:00 +24°C° 0 mm 1 mps 712 mmHg 59%
    08:00 +25°C° 0 mm 2 mps 712 mmHg 50%
    09:00 +27°C° 0 mm 2 mps 713 mmHg 41%
    10:00 +28°C° 0 mm 3 mps 713 mmHg 37%
    11:00 +30°C° 0 mm 3 mps 713 mmHg 33%
    12:00 +32°C° 0 mm 4 mps 713 mmHg 29%
    13:00 +32°C° 0 mm 4 mps 712 mmHg 29%
    14:00 +32°C° 0 mm 4 mps 712 mmHg 29%
    15:00 +32°C° 0 mm 5 mps 712 mmHg 29%
    16:00 +30°C° 0 mm 4 mps 712 mmHg 34%
    17:00 +28°C° 0 mm 4 mps 711 mmHg 39%
    18:00 +27°C° 0 mm 4 mps 711 mmHg 43%
    19:00 +26°C° 0 mm 3 mps 712 mmHg 49%
    20:00 +25°C° 0 mm 2 mps 712 mmHg 54%
    21:00 +24°C° 0 mm 1 mps 712 mmHg 59%
    22:00 +23°C° 0 mm 1 mps 712 mmHg 62%
    23:00 +23°C° 0 mm 1 mps 712 mmHg 64%

    Mañana, 22 Agosto, Martes

    Tiempo Temperatura Precipitaciones Viento Presión Humedad
    00:00 +22°C° 0 mm 1 mps 711 mmHg 67%
    01:00 +22°C° 0 mm 1 mps 711 mmHg 68%
    02:00 +22°C° 0 mm 1 mps 711 mmHg 70%
    03:00 +21°C° 0 mm 1 mps 711 mmHg 71%
    04:00 +21°C° 0 mm 1 mps 711 mmHg 69%
    05:00 +22°C° 0 mm 1 mps 711 mmHg 67%
    06:00 +22°C° 0 mm 1 mps 712 mmHg 65%
    07:00 +24°C° 0 mm 1 mps 712 mmHg 55%
    08:00 +24°C° 0 mm 0 mps 712 mmHg 44%
    09:00 +26°C° 0 mm 0 mps 713 mmHg 34%
    10:00 +29°C° 0 mm 1 mps 712 mmHg 30%
    11:00 +30°C° 0 mm 2 mps 712 mmHg 26%
    12:00 +32°C° 0 mm 2 mps 712 mmHg 23%
    13:00 +32°C° 0 mm 2 mps 712 mmHg 24%
    14:00 +33°C° 0 mm 3 mps 712 mmHg 25%
    15:00 +34°C° 0 mm 3 mps 711 mmHg 26%
    16:00 +31°C° 0 mm 3 mps 711 mmHg 32%
    17:00 +30°C° 0 mm 4 mps 711 mmHg 39%
    18:00 +29°C° 0 mm 4 mps 711 mmHg 46%
    19:00 +28°C° 0 mm 3 mps 711 mmHg 52%
    20:00 +26°C° 0 mm 2 mps 711 mmHg 58%
    21:00 +25°C° 0 mm 2 mps 711 mmHg 64%
    22:00 +25°C° 0 mm 1 mps 711 mmHg 65%
    23:00 +25°C° 0 mm 1 mps 711 mmHg 67%

    Pasado mañana, 23 Agosto, Miércoles

    Tiempo Temperatura Precipitaciones Viento Presión Humedad
    00:00 +24°C° 0 mm 1 mps 711 mmHg 68%
    01:00 +24°C° 0 mm 1 mps 711 mmHg 69%
    02:00 +24°C° 0 mm 1 mps 710 mmHg 69%
    03:00 +23°C° 0 mm 1 mps 710 mmHg 70%
    04:00 +24°C° 0 mm 1 mps 711 mmHg 69%
    05:00 +24°C° 0 mm 1 mps 711 mmHg 67%
    06:00 +24°C° 0 mm 1 mps 711 mmHg 66%
    07:00 +26°C° 0 mm 1 mps 712 mmHg 58%
    08:00 +28°C° 0 mm 1 mps 712 mmHg 50%
    09:00 +30°C° 0 mm 1 mps 713 mmHg 41%
    10:00 +31°C° 0 mm 1 mps 712 mmHg 36%
    11:00 +32°C° 0 mm 2 mps 712 mmHg 30%
    12:00 +34°C° 0 mm 2 mps 712 mmHg 25%
    13:00 +35°C° 0 mm 3 mps 712 mmHg 24%
    14:00 +35°C° 0 mm 3 mps 712 mmHg 24%
    15:00 +35°C° 0 mm 3 mps 712 mmHg 23%
    16:00 +34°C° 0 mm 4 mps 712 mmHg 27%
    17:00 +33°C° 0 mm 4 mps 711 mmHg 32%
    18:00 +32°C° 0 mm 4 mps 711 mmHg 36%
    19:00 +29°C° 0 mm 3 mps 711 mmHg 40%
    20:00 +28°C° 0 mm 2 mps 712 mmHg 44%
    21:00 +27°C° 0 mm 2 mps 712 mmHg 48%
    22:00 +27°C° 0 mm 1 mps 712 mmHg 49%
    23:00 +26°C° 0 mm 1 mps 711 mmHg 50%

    24 Agosto, Jueves

    Tiempo Temperatura Precipitaciones Viento Presión Humedad
    00:00 +26°C° 0 mm 1 mps 711 mmHg 51%
    01:00 +26°C° 0 mm 1 mps 711 mmHg 51%
    02:00 +25°C° 0 mm 1 mps 711 mmHg 51%
    03:00 +25°C° 0 mm 1 mps 711 mmHg 51%
    04:00 +25°C° 0 mm 1 mps 711 mmHg 50%
    05:00 +26°C° 0 mm 1 mps 711 mmHg 48%
    06:00 +26°C° 0 mm 1 mps 711 mmHg 47%
    07:00 +28°C° 0 mm 1 mps 712 mmHg 42%
    08:00 +30°C° 0 mm 2 mps 712 mmHg 36%
    09:00 +32°C° 0 mm 2 mps 713 mmHg 30%
    10:00 +34°C° 0 mm 2 mps 713 mmHg 27%
    11:00 +36°C° 0 mm 2 mps 712 mmHg 24%
    12:00 +37°C° 0 mm 2 mps 712 mmHg 20%
    13:00 +37°C° 0 mm 3 mps 712 mmHg 20%
    14:00 +37°C° 0 mm 3 mps 712 mmHg 20%
    15:00 +38°C° 0 mm 3 mps 711 mmHg 20%
    16:00 +36°C° 0 mm 3 mps 711 mmHg 22%
    17:00 +35°C° 0 mm 3 mps 711 mmHg 25%
    18:00 +34°C° 0 mm 3 mps 711 mmHg 28%
    19:00 +33°C° 0 mm 3 mps 711 mmHg 31%
    20:00 +31°C° 0 mm 2 mps 711 mmHg 34%
    21:00 +30°C° 0 mm 2 mps 711 mmHg 37%
    22:00 +29°C° 0 mm 2 mps 711 mmHg 38%
    23:00 +29°C° 0 mm 1 mps 711 mmHg 38%

    25 Agosto, Viernes

    Tiempo Temperatura Precipitaciones Viento Presión Humedad
    00:00 +29°C° 0 mm 1 mps 710 mmHg 39%
    01:00 +28°C° 0 mm 1 mps 710 mmHg 39%
    02:00 +28°C° 0 mm 2 mps 710 mmHg 39%
    03:00 +28°C° 0 mm 2 mps 710 mmHg 39%
    04:00 +28°C° 0 mm 2 mps 710 mmHg 40%
    05:00 +28°C° 0 mm 2 mps 710 mmHg 41%
    06:00 +28°C° 0 mm 2 mps 710 mmHg 42%
    07:00 +30°C° 0 mm 3 mps 711 mmHg 38%
    08:00 +33°C° 0 mm 3 mps 711 mmHg 34%
    09:00 +35°C° 0 mm 3 mps 711 mmHg 30%
    10:00 +36°C° 0 mm 3 mps 711 mmHg 27%
    11:00 +37°C° 0 mm 3 mps 711 mmHg 24%
    12:00 +38°C° 0 mm 2 mps 711 mmHg 21%
    13:00 +38°C° 0 mm 3 mps 710 mmHg 20%
    14:00 +39°C° 0 mm 3 mps 710 mmHg 20%
    15:00 +39°C° 0 mm 3 mps 710 mmHg 19%
    16:00 +38°C° 0 mm 3 mps 710 mmHg 22%
    17:00 +36°C° 0 mm 3 mps 710 mmHg 25%
    18:00 +35°C° 0 mm 3 mps 710 mmHg 28%
    19:00 +34°C° 0 mm 2 mps 710 mmHg 31%
    20:00 +32°C° 0 mm 2 mps 710 mmHg 33%
    21:00 +31°C° 0 mm 1 mps 710 mmHg 35%
    22:00 +31°C° 0 mm 1 mps 710 mmHg 35%
    23:00 +31°C° 0 mm 1 mps 709 mmHg 36%

    26 Agosto, Sábado

    Tiempo Temperatura Precipitaciones Viento Presión Humedad
    00:00 +30°C° 0 mm 1 mps 709 mmHg 36%
    01:00 +30°C° 0 mm 1 mps 709 mmHg 37%
    02:00 +30°C° 0 mm 2 mps 709 mmHg 37%
    03:00 +29°C° 0 mm 2 mps 709 mmHg 38%
    04:00 +29°C° 0 mm 2 mps 709 mmHg 39%
    05:00 +29°C° 0 mm 2 mps 709 mmHg 39%
    06:00 +29°C° 0 mm 2 mps 709 mmHg 40%
    07:00 +31°C° 0 mm 3 mps 710 mmHg 36%
    08:00 +34°C° 0 mm 3 mps 710 mmHg 31%
    09:00 +35°C° 0 mm 3 mps 710 mmHg 27%
    10:00 +36°C° 0 mm 3 mps 710 mmHg 25%
    11:00 +37°C° 0 mm 3 mps 710 mmHg 23%
    12:00 +38°C° 0 mm 3 mps 710 mmHg 22%
    13:00 +38°C° 0 mm 3 mps 710 mmHg 22%
    14:00 +38°C° 0 mm 3 mps 709 mmHg 23%
    15:00 +38°C° 0 mm 3 mps 709 mmHg 23%
    16:00 +36°C° 0 mm 3 mps 709 mmHg 27%
    17:00 +35°C° 0 mm 3 mps 709 mmHg 30%
    18:00 +34°C° 0 mm 3 mps 709 mmHg 33%
    19:00 +32°C° 0,1 mm 2 mps 709 mmHg 35%
    20:00 +31°C° 0,1 mm 2 mps 709 mmHg 38%
    21:00 +30°C° 0,1 mm 1 mps 709 mmHg 41%
    22:00 +30°C° 0,2 mm 1 mps 709 mmHg 41%
    23:00 +30°C° 0,2 mm 1 mps 709 mmHg 42%
    Mostrar más